Date String (YYYY-MM-DD hh:mm:ss) UTC,Instrument flags,Ambient pressure (hPa),Sample flow (lpm),Bypass flow (lpm),Sample temperature (°C),Ambient temperature (°C),ASC tube jacket temperature (°C),LED temperature (°C),Box temperature (°C),Sample RH (%),Span deviation,Mass concentration (μg/m³),Mass concentration (μg/m³),Mass concentration (μg/m³)
DateTimeUTC,F1_M11,P_M11,Q1_M11,Q2_M11,T1_M11,T2_M11,T3_M11,T4_M11,T5_M11,U1_M11,ZSPAN_M11,X2_M11,X0_M11,X1_M11
2022-09-23 05:00:00,,0826.5,5.01,0.00,30.4,28.8,00.0,39.2,32.2,26.6,-002.7,0012.57,0016.22,0012.06
2022-09-23 05:01:00,,0826.6,5.00,0.00,30.4,28.9,00.0,39.2,32.2,26.6,-002.6,0012.50,0016.15,0011.99
2022-09-23 05:02:00,,0826.7,4.99,0.00,30.4,28.9,00.0,39.2,32.2,27.2,-002.7,0012.45,0016.05,0011.96
2022-09-23 05:03:00,,0826.6,5.01,0.00,30.4,28.8,00.0,39.2,32.2,27.4,-002.7,0012.42,0016.01,0011.92
2022-09-23 05:04:00,,0826.5,4.99,0.00,30.4,28.8,00.0,39.2,32.2,26.8,-002.7,0012.36,0015.79,0011.87
2022-09-23 05:05:00,,0826.5,5.00,0.00,30.4,28.8,00.0,39.2,32.2,26.6,-002.9,0012.29,0015.62,0011.82
2022-09-23 05:06:00,,0826.5,5.01,0.00,30.4,28.8,00.0,39.2,32.2,26.7,-003.1,0012.25,0015.41,0011.77
2022-09-23 05:07:00,,0826.5,4.99,0.00,30.4,28.7,00.0,39.2,32.1,26.8,-003.2,0012.24,0015.37,0011.74
2022-09-23 05:08:00,,0826.5,4.99,0.00,30.3,28.6,00.0,39.1,32.1,26.7,-003.2,0012.22,0015.34,0011.74
2022-09-23 05:09:00,,0826.5,5.00,0.00,30.3,28.7,00.0,39.1,32.1,26.7,-003.1,0012.20,0015.31,0011.73
2022-09-23 05:10:00,,0826.5,5.01,0.00,30.3,28.7,00.0,39.1,32.1,26.7,-003.2,0012.19,0015.49,0011.73
2022-09-23 05:11:00,,0826.5,5.00,0.00,30.3,28.7,00.0,39.1,32.1,26.8,-003.2,0012.24,0016.59,0011.75
2022-09-23 05:12:00,,0826.5,4.99,0.00,30.3,28.5,00.0,39.1,32.1,26.7,-003.3,0012.29,0016.86,0011.78
2022-09-23 05:13:00,,0826.5,5.01,0.00,30.3,28.5,00.0,39.1,32.0,26.8,-003.1,0012.29,0016.89,0011.78
2022-09-23 05:14:00,,0826.5,5.00,0.00,30.3,28.5,00.0,39.1,32.0,26.8,-003.2,0012.32,0016.96,0011.79
2022-09-23 05:15:00,,0826.5,4.99,0.00,30.3,28.5,00.0,39.1,32.0,26.9,-003.3,0012.40,0017.13,0011.84
2022-09-23 05:16:00,,0826.5,5.00,0.00,30.3,28.5,00.0,39.1,32.0,26.8,-003.3,0012.43,0017.19,0011.86
2022-09-23 05:17:00,,0826.5,5.00,0.00,30.3,28.5,00.0,39.1,32.0,26.7,-003.2,0012.38,0017.48,0011.84
2022-09-23 05:18:00,,0826.5,5.01,0.00,30.2,28.5,00.0,39.1,32.0,26.9,-003.1,0012.35,0017.44,0011.85
2022-09-23 05:19:00,,0826.5,5.00,0.00,30.2,28.6,00.0,39.1,32.0,26.9,-003.1,0012.38,0017.92,0011.88
2022-09-23 05:20:00,,0826.6,5.00,0.00,30.2,28.6,00.0,39.0,32.0,26.9,-003.1,0012.37,0018.14,0011.88
2022-09-23 05:21:00,,0826.6,5.01,0.00,30.2,28.6,00.0,39.1,32.0,26.9,-003.1,0012.41,0018.13,0011.90
2022-09-23 05:22:00,,0826.6,5.01,0.00,30.2,28.7,00.0,39.0,32.0,26.8,-003.1,0012.39,0017.11,0011.91
2022-09-23 05:23:00,,0826.7,4.99,0.00,30.2,28.7,00.0,39.0,32.1,26.7,-003.2,0012.36,0016.77,0011.89
2022-09-23 05:24:00,,0826.7,5.00,0.00,30.3,28.8,00.0,39.0,32.1,26.7,-003.3,0012.39,0016.92,0011.89
2022-09-23 05:25:00,,0826.6,5.00,0.00,30.3,28.8,00.0,39.0,32.1,26.7,-003.4,0012.39,0016.94,0011.88
2022-09-23 05:26:00,,0826.5,5.00,0.00,30.3,28.8,00.0,39.0,32.1,26.6,-003.4,0012.38,0016.89,0011.88
2022-09-23 05:27:00,,0826.5,4.99,0.00,30.3,28.8,00.0,39.0,32.1,26.6,-003.3,0012.37,0017.05,0011.88
2022-09-23 05:28:00,,0826.5,5.01,0.00,30.3,28.9,00.0,39.1,32.1,26.5,-003.2,0012.41,0017.22,0011.92
2022-09-23 05:29:00,,0826.5,4.99,0.00,30.3,28.9,00.0,39.1,32.1,26.5,-003.2,0012.47,0017.34,0011.95
2022-09-23 05:30:00,,0826.6,5.01,0.00,30.3,28.9,00.0,39.1,32.2,26.5,-003.3,0012.52,0016.92,0011.99
2022-09-23 05:31:00,,0826.5,4.99,0.00,30.3,28.9,00.0,39.1,32.2,26.4,-003.3,0012.58,0016.77,0012.04
2022-09-23 05:32:00,,0826.6,5.01,0.00,30.3,28.8,00.0,39.1,32.1,26.5,-003.2,0012.59,0016.71,0012.07
2022-09-23 05:33:00,,0826.5,5.00,0.00,30.3,28.8,00.0,39.1,32.1,26.6,-003.0,0012.62,0016.86,0012.08
2022-09-23 05:34:00,,0826.5,5.01,0.00,30.3,28.8,00.0,39.1,32.1,26.6,-002.8,0012.68,0017.14,0012.12
2022-09-23 05:35:00,,0826.5,4.99,0.00,30.3,28.8,00.0,39.1,32.1,26.5,-002.8,0012.70,0017.16,0012.13
2022-09-23 05:36:00,,0826.5,5.01,0.00,30.3,28.9,00.0,39.1,32.1,26.3,-002.8,0012.71,0017.13,0012.17
2022-09-23 05:37:00,,0826.5,4.99,0.00,30.3,28.9,00.0,39.1,32.2,26.3,-002.7,0012.75,0017.21,0012.20
2022-09-23 05:38:00,,0826.5,5.00,0.00,30.4,28.9,00.0,39.1,32.2,26.4,-002.7,0012.77,0017.11,0012.24
2022-09-23 05:39:00,,0826.4,4.98,0.00,30.4,28.9,00.0,39.1,32.2,26.4,-002.6,0012.83,0016.62,0012.29
2022-09-23 05:40:00,,0826.4,5.01,0.00,30.4,28.9,00.0,39.1,32.2,26.7,-002.7,0012.87,0016.62,0012.33
2022-09-23 05:41:00,,0826.4,4.99,0.00,30.4,28.9,00.0,39.1,32.2,27.3,-002.7,0012.87,0016.57,0012.34
2022-09-23 05:42:00,,0826.5,5.00,0.00,30.4,28.9,00.0,39.1,32.2,26.6,-002.7,0012.87,0016.58,0012.35
2022-09-23 05:43:00,,0826.5,5.00,0.00,30.4,28.9,00.0,39.1,32.2,26.4,-002.7,0012.92,0016.67,0012.38
2022-09-23 05:44:00,,0826.5,4.99,0.00,30.4,28.9,00.0,39.1,32.2,26.4,-003.0,0012.94,0016.67,0012.42
2022-09-23 05:45:00,,0826.5,5.01,0.00,30.4,28.9,00.0,39.1,32.2,26.5,-003.0,0012.94,0016.50,0012.43
2022-09-23 05:46:00,,0826.4,5.00,0.00,30.4,28.9,00.0,39.1,32.2,26.5,-003.0,0012.93,0016.40,0012.44
2022-09-23 05:47:00,,0826.4,5.01,0.00,30.4,28.9,00.0,39.1,32.2,26.4,-002.8,0012.91,0016.84,0012.43
2022-09-23 05:48:00,,0826.4,4.99,0.00,30.4,28.9,00.0,39.1,32.2,26.3,-002.8,0012.84,0017.10,0012.38
2022-09-23 05:49:00,,0826.4,5.01,0.00,30.4,28.9,00.0,39.1,32.2,26.3,-002.7,0012.71,0017.18,0012.26
2022-09-23 05:50:00,,0826.4,4.99,0.00,30.4,28.9,00.0,39.1,32.2,26.3,-002.8,0012.55,0016.98,0012.12
2022-09-23 05:51:00,,0826.5,5.01,0.00,30.4,28.9,00.0,39.1,32.2,26.1,-002.6,0012.37,0016.69,0011.96
2022-09-23 05:52:00,,0826.5,4.99,0.00,30.4,29.0,00.0,39.2,32.2,26.0,-002.7,0012.19,0016.58,0011.79
2022-09-23 05:53:00,,0826.5,5.01,0.00,30.4,29.0,00.0,39.2,32.3,26.0,-002.6,0012.02,0016.47,0011.61
2022-09-23 05:54:00,,0826.5,5.00,0.00,30.4,29.0,00.0,39.2,32.3,26.0,-002.8,0011.83,0016.24,0011.43
2022-09-23 05:55:00,,0826.5,4.99,0.00,30.4,29.0,00.0,39.2,32.2,26.0,-002.4,0011.64,0015.94,0011.26
2022-09-23 05:56:00,,0826.5,5.00,0.00,30.4,29.0,00.0,39.1,32.3,26.0,-002.5,0011.44,0015.61,0011.12
2022-09-23 05:57:00,,0826.5,4.99,0.00,30.4,29.0,00.0,39.2,32.3,26.1,-002.7,0011.29,0015.38,0010.98
2022-09-23 05:58:00,,0826.5,5.01,0.00,30.5,29.0,00.0,39.2,32.3,26.1,-002.8,0011.14,0014.73,0010.84
2022-09-23 05:59:00,,0826.5,5.01,0.00,30.5,28.9,00.0,39.2,32.3,26.1,-002.8,0011.04,0014.17,0010.73
